Location: Newark
(34.6283°N, 36.0776°E)
Time: 22:37:07
(UTC+00:00)

Transit 4A - Visible Passes

Search period start: 17 September 2019 00:00
Search period end: 27 September 2019 00:00
Orbit: 865 x 980 km, 66.8° (Epoch: 16 September)

Date Brightness Start Highest point End Pass type
(mag) Time Alt. Az. Time Alt. Az. Time Alt. Az.
17 Sep 9.3 18:39:16 10° NNW 18:42:18 29° N 18:42:18 29° N visible
18 Sep 9.7 17:04:20 10° NNE 17:07:20 14° NE 17:07:59 14° NE visible
18 Sep 9.4 18:48:32 10° NNW 18:51:30 31° NNW 18:51:30 31° NNW visible
19 Sep 9.3 17:12:41 10° N 17:17:05 20° NE 17:17:14 20° NE visible
19 Sep 9.6 18:57:56 10° NW 19:00:45 28° NW 19:00:45 28° NW visible
20 Sep 8.8 17:21:28 10° N 17:26:33 29° NE 17:26:33 29° NE visible
20 Sep 9.8 19:07:35 10° NW 19:10:04 23° WNW 19:10:04 23° WNW visible
21 Sep 8.3 17:30:28 10° NNW 17:35:55 43° NE 17:35:55 43° NE visible
21 Sep 10.2 19:17:31 10° NW 19:19:27 18° WNW 19:19:27 18° WNW visible
22 Sep 9.8 15:56:49 10° NNE 15:58:05 11° NE 15:59:21 10° NE visible
22 Sep 7.8 17:39:37 10° NNW 17:45:22 66° NE 17:45:22 66° NE visible
22 Sep 10.5 19:28:04 10° WNW 19:28:54 12° WNW 19:28:54 12° WNW visible
23 Sep 9.5 16:04:18 10° N 16:07:53 16° NE 16:11:21 10° E visible
23 Sep 7.8 17:48:56 10° NNW 17:54:53 80° W 17:54:53 80° W visible
24 Sep 9.1 16:12:51 10° N 16:17:34 23° NE 16:20:59 14° E visible
24 Sep 8.3 17:58:25 10° NW 18:04:13 51° WSW 18:04:32 51° WSW visible
25 Sep 8.6 16:21:44 10° N 16:27:09 34° NE 16:30:43 18° ESE visible
25 Sep 9.1 18:08:09 10° NW 18:13:23 32° WSW 18:14:17 31° SW visible
26 Sep 8.0 16:30:47 10° NNW 16:36:38 51° ENE 16:40:37 19° SE visible
26 Sep 9.8 18:18:15 10° WNW 18:22:29 20° WSW 18:24:12 18° SW visible
